Location: Eaton Estates
(41.3089°N, 82.0057°W)
Time: 13:02:58
(UTC+00:00)

COSMOS 2428 - Pass Details

Date: 17 June 2021
Orbit: 845 x 858 km, 70.9° (Epoch: 27 July)

Event Time Altitude Azimuth Distance (km) Brightness Sun altitude
Exits shadow 04:48:50 18° 244° (WSW) 1,995 4.5 -24.6°
Maximum altitude 04:52:34 37° 302° (WNW) 1,309 4.0 -24.8°
Drops below altitude 10° 04:57:53 10° 9° (N) 2,501 6.1 -24.9°
Sets 05:00:33 0° 18° (NNE) 3,441 6.9 -25.0°
